[[{"header":{"parameterUnit":"m.s-1","parameterCategory":1,"la1":30.2991,"la2":30.254,"lo1":-89.0895,"lo2":-89.0444,"dy":0.0017,"dx":0.0017,"nx":28,"ny":28,"refTime":"2024-04-23T09:00:00:Z","depth":0,"parameterNumber":2,"parameterNumberName":"U-component_of_WINDS"},"data":[0,0,0,0,0,0,0,0,0,0,0,0,0,0,0,0,0,0,0,0,0,0,0,0,0,0,0,0,0,0,0,0,0,0,0,0,0,0,0,0,0,0,0,0,0,0,0,0,0,0,0,0,0,0,0,0,0,0,-1.321,-1.321,0,-1.3228,-1.3228,-1.3228,-1.3218,-1.3217,-1.3217,-1.3217,-1.3235,-1.3236,-1.3237,0,0,0,0,0,0,0,0,0,0,0,0,0,-1.3167,-1.3168,-1.321,-1.321,-1.321,-1.3228,-1.3228,-1.3228,-1.3218,-1.3217,-1.3217,-1.3216,-1.3235,-1.3236,-1.3237,0,0,0,0,0,0,0,0,0,0,0,0,0,-1.3185,-1.3168,-1.321,-1.3207,-1.3207,-1.3228,-1.3228,-1.3228,-1.3218,-1.3217,-1.3217,-1.3216,-1.3234,-1.3236,-1.3237,-1.3261,0,0,-1.3242,-1.3242,0,0,0,0,0,0,0,0,-1.3184,-1.3187,-1.3207,-1.3207,-1.3207,-1.322,-1.322,-1.3239,-1.3218,-1.3214,-1.3216,-1.3216,-1.3231,-1.3232,-1.3237,-1.3262,-1.3263,-1.3242,-1.3243,-1.3243,-1.3244,0,0,0,0,0,0,0,-1.3183,-1.3186,-1.3217,-1.3208,-1.3208,-1.3205,-1.3207,-1.3223,-1.3226,-1.3214,-1.3214,-1.3216,-1.3231,-1.3236,-1.3238,-1.3263,-1.3242,-1.3243,-1.3244,-1.3244,-1.3309,-1.3309,0,0,0,0,0,0,-1.3182,-1.3185,-1.3216,-1.3217,-1.3194,-1.3207,-1.3209,-1.3217,-1.3226,-1.3227,-1.3217,-1.3215,-1.3234,-1.3236,-1.3238,-1.3267,-1.3243,-1.3245,-1.3245,-1.3308,-1.3309,-1.331,0,0,0,0,0,0,-1.3181,-1.3185,-1.3216,-1.3201,-1.3205,-1.3208,-1.3217,-1.3217,-1.3223,-1.3228,-1.3228,-1.3222,-1.3233,-1.3236,-1.3256,-1.3268,-1.3245,-1.3247,-1.3307,-1.3308,-1.3309,-1.3325,0,0,0,0,0,0,-1.318,-1.3184,-1.3194,-1.3201,-1.3206,-1.3233,-1.3218,-1.3218,-1.3225,-1.3224,-1.3233,-1.3233,-1.3233,-1.3254,-1.3257,-1.3269,-1.3248,-1.3306,-1.3307,-1.3309,-1.3324,-1.3327,-1.333,0,0,0,0,0,-1.3178,-1.3197,-1.3194,-1.3198,-1.3217,-1.3233,-1.3236,-1.3235,-1.3226,-1.3236,-1.3239,-1.3233,-1.3266,-1.3256,-1.326,-1.3272,-1.3305,-1.3307,-1.3309,-1.3322,-1.3326,-1.3329,0,0,0,0,0,0,-1.3191,-1.3198,-1.3195,-1.3217,-1.3225,-1.3232,-1.3243,-1.3239,-1.3249,-1.3248,-1.3246,-1.3248,-1.3269,-1.3272,-1.3261,-1.3296,-1.3284,-1.3287,-1.3293,-1.3297,-1.33,-1.3298,-1.3249,0,0,0,0,0,-1.3196,-1.3209,-1.3215,-1.3234,-1.3238,-1.324,-1.3247,-1.3246,-1.3254,-1.3257,-1.3261,-1.3269,-1.3281,-1.3289,-1.33,-1.3324,-1.3326,-1.3335,-1.3338,-1.334,-1.3343,-1.3355,-1.3359,-1.3316,-1.3316,-1.3316,0,0,-1.3208,-1.3213,-1.3221,-1.3236,-1.3242,-1.3255,-1.3243,-1.3257,-1.3267,-1.3259,-1.3277,-1.3281,-1.329,-1.3311,-1.3321,-1.3315,-1.3355,-1.3343,-1.3344,-1.3346,-1.3358,-1.3362,-1.3365,-1.3317,-1.3317,-1.3317,0,0,-1.3235,-1.3241,-1.3257,-1.3263,-1.3272,-1.3273,-1.3277,-1.3285,-1.3287,-1.3305,-1.33,-1.3311,-1.3332,-1.3338,-1.3344,-1.3374,-1.3369,-1.3378,-1.3394,-1.3406,-1.3409,-1.3412,-1.3423,-1.3427,-1.338,-1.338,-1.338,0,-1.3248,-1.3268,-1.3266,-1.3281,-1.3288,-1.3281,-1.3298,-1.3304,-1.3316,-1.3321,-1.3314,-1.334,-1.3345,-1.3368,-1.3375,-1.3381,-1.3385,-1.3377,-1.3409,-1.3412,-1.3415,-1.3425,-1.3429,-1.3381,-1.3381,-1.3381,-1.3381,0,-1.3283,-1.3297,-1.3309,-1.3321,-1.3329,-1.3345,-1.3346,-1.3354,-1.3352,-1.3354,-1.3373,-1.3379,-1.3392,-1.3397,-1.3395,-1.342,-1.3416,-1.3409,-1.3397,-1.342,-1.343,-1.3433,-1.3383,-1.3382,-1.3382,-1.3382,0,0,-1.332,-1.333,-1.3335,-1.334,-1.3349,-1.336,-1.3375,-1.3387,-1.3394,-1.3403,-1.3416,-1.3434,-1.3427,-1.3434,-1.3433,-1.3444,-1.3467,-1.3436,-1.3436,-1.3441,-1.3494,-1.35,-1.3504,-1.3464,-1.3464,-1.3465,-1.3494,0,-1.3348,-1.3375,-1.3374,-1.3399,-1.3411,-1.3405,-1.3418,-1.3425,-1.3428,-1.3439,-1.3441,-1.3454,-1.3444,-1.3448,-1.3459,-1.3462,-1.3478,-1.346,-1.3476,-1.3476,-1.3474,-1.3509,-1.3515,-1.3541,-1.3497,-1.3498,-1.3498,0,-1.3384,-1.3394,-1.342,-1.3427,-1.3433,-1.3445,-1.3456,-1.3466,-1.3474,-1.3475,-1.3482,-1.3479,-1.3495,-1.3482,-1.3504,-1.3492,-1.3498,-1.35,-1.3502,-1.3503,-1.3489,-1.3512,-1.355,-1.3554,-1.3504,-1.3504,-1.3503,0,-1.3409,-1.3428,-1.3446,-1.3451,-1.346,-1.3468,-1.3472,-1.3479,-1.3487,-1.3496,-1.3501,-1.3512,-1.3518,-1.3527,-1.3527,-1.3518,-1.3549,-1.3536,-1.355,-1.355,-1.3557,-1.3557,-1.3597,-1.3561,-1.3561,-1.3561,-1.3561,0,-1.344,-1.3457,-1.3457,-1.3469,-1.3487,-1.3485,-1.3503,-1.3506,-1.3513,-1.3524,-1.3519,-1.3531,-1.353,-1.3541,-1.3541,-1.3559,-1.3562,-1.3563,-1.3563,-1.3564,-1.3564,-1.3568,-1.3566,-1.3562,-1.3562,-1.3562,-1.3561,0,-1.3471,-1.3472,-1.3491,-1.3498,-1.35,-1.3513,-1.3518,-1.3529,-1.3531,-1.3545,-1.3549,-1.3552,-1.3565,-1.3565,-1.358,-1.3581,-1.3602,-1.36,-1.3599,-1.3599,-1.3613,-1.3612,-1.3658,-1.3664,-1.3624,-1.3624,-1.3624,0,-1.3491,-1.3503,-1.3511,-1.3519,-1.3523,-1.3535,-1.3543,-1.3541,-1.3549,-1.3559,-1.3569,-1.3581,-1.3591,-1.3612,-1.3615,-1.3627,-1.3625,-1.364,-1.3627,-1.3627,-1.3625,-1.3625,-1.3626,-1.3643,-1.3643,-1.3644,-1.3644,0,-1.3527,-1.3527,-1.3538,-1.3549,-1.3557,-1.3566,-1.3574,-1.358,-1.358,-1.3589,-1.3602,-1.361,-1.3625,-1.3638,-1.3649,-1.3653,-1.3649,-1.3648,-1.3652,-1.3653,-1.3652,-1.3653,-1.3607,-1.3647,-1.3647,-1.3647,-1.3647,-1.3646,-1.3553,-1.3564,-1.3571,-1.3583,-1.3589,-1.3596,-1.3607,-1.3609,-1.362,-1.3632,-1.3631,-1.3646,-1.3653,-1.3667,-1.3672,-1.3684,-1.3679,-1.3684,-1.3686,-1.3687,-1.3689,-1.365,-1.3686,-1.3686,-1.3686,-1.3685,-1.3685,0,-1.359,-1.3594,-1.3605,-1.3616,-1.3625,-1.362,-1.3628,-1.3637,-1.3649,-1.3656,-1.3666,-1.3681,-1.3693,-1.3697,-1.3709,-1.3717,-1.3715,-1.372,-1.372,-1.3721,-1.3692,-1.3688,-1.3721,-1.3721,-1.3721,-1.3721,-1.3721,-1.3721,-1.361,-1.3627,-1.3628,-1.3648,-1.3652,-1.3666,-1.3672,-1.3678,-1.3684,-1.3701,-1.3711,-1.3713,-1.3719,-1.3731,-1.3742,-1.3742,-1.3747,-1.3753,-1.3753,-1.3726,-1.3723,-1.3719,-1.3715,-1.3754,-1.3754,-1.378,-1.378,-1.3781]},{"header":{"parameterUnit":"m.s-1","parameterCategory":1,"la1":30.2991,"la2":30.254,"lo1":-89.0895,"lo2":-89.0444,"dy":0.0017,"dx":0.0017,"nx":28,"ny":28,"refTime":"2024-04-23T09:00:00:Z","depth":0,"parameterNumber":3,"parameterNumberName":"V-component_of_WINDS"},"data":[0,0,0,0,0,0,0,0,0,0,0,0,0,0,0,0,0,0,0,0,0,0,0,0,0,0,0,0,0,0,0,0,0,0,0,0,0,0,0,0,0,0,0,0,0,0,0,0,0,0,0,0,0,0,0,0,0,0,5.0878,5.0879,0,5.0929,5.093,5.093,5.0867,5.0865,5.0863,5.086,5.0909,5.0912,5.0916,0,0,0,0,0,0,0,0,0,0,0,0,0,5.072,5.0723,5.0878,5.0879,5.0879,5.0929,5.093,5.093,5.0868,5.0865,5.0862,5.0859,5.0908,5.0912,5.0916,0,0,0,0,0,0,0,0,0,0,0,0,0,5.0782,5.0725,5.0878,5.0854,5.0852,5.0929,5.093,5.0931,5.0868,5.0865,5.0861,5.0858,5.0906,5.0911,5.0916,5.1018,0,0,5.0932,5.0934,0,0,0,0,0,0,0,0,5.0778,5.0788,5.0857,5.0856,5.0854,5.0888,5.0892,5.096,5.0869,5.0862,5.086,5.0856,5.0904,5.091,5.0927,5.102,5.1022,5.0933,5.0936,5.0938,5.0939,0,0,0,0,0,0,0,5.0774,5.0785,5.0898,5.0858,5.0856,5.0839,5.0844,5.0904,5.0902,5.0862,5.0858,5.0865,5.0903,5.0922,5.0927,5.1023,5.0932,5.0937,5.094,5.0942,5.1197,5.1201,0,0,0,0,0,0,5.0773,5.0782,5.0896,5.09,5.0807,5.0845,5.085,5.0881,5.0901,5.0901,5.0868,5.0862,5.0915,5.0921,5.0929,5.1046,5.0938,5.0943,5.0946,5.1194,5.1198,5.1202,0,0,0,0,0,0,5.077,5.0784,5.0894,5.084,5.0852,5.0851,5.0886,5.0884,5.0902,5.0905,5.0904,5.0888,5.0912,5.0921,5.0995,5.1046,5.0945,5.095,5.1189,5.1195,5.12,5.1282,0,0,0,0,0,0,5.0766,5.0784,5.0823,5.0841,5.0856,5.0962,5.0889,5.0887,5.0912,5.0904,5.0924,5.0924,5.091,5.0988,5.1001,5.1052,5.0954,5.1185,5.1192,5.1198,5.1275,5.129,5.1302,0,0,0,0,0,5.0761,5.0844,5.0826,5.084,5.0906,5.0965,5.0973,5.0957,5.0916,5.0955,5.0957,5.0923,5.104,5.0996,5.101,5.1063,5.1181,5.119,5.1198,5.1268,5.1287,5.1302,0,0,0,0,0,0,5.0832,5.0846,5.0826,5.0918,5.0941,5.0954,5.1003,5.0978,5.1011,5.1003,5.098,5.0985,5.1063,5.1071,5.1022,5.116,5.1103,5.1115,5.1152,5.117,5.1183,5.1179,5.0958,0,0,0,0,0,5.0859,5.0907,5.0917,5.0997,5.101,5.1005,5.103,5.1016,5.1038,5.1047,5.1054,5.1075,5.1116,5.1144,5.1182,5.1276,5.1277,5.1319,5.1333,5.1345,5.1354,5.1401,5.1418,5.1229,5.1229,5.1229,0,0,5.0914,5.0928,5.096,5.1012,5.1028,5.1076,5.1013,5.1068,5.1103,5.1055,5.1124,5.113,5.1153,5.1236,5.1273,5.1245,5.1407,5.1355,5.1364,5.1367,5.1411,5.1429,5.1445,5.1235,5.1234,5.1233,0,0,5.1038,5.1055,5.1122,5.114,5.1165,5.1161,5.1177,5.1194,5.1196,5.1266,5.123,5.1271,5.1343,5.1359,5.1377,5.1506,5.1475,5.1519,5.1591,5.1637,5.1652,5.1665,5.1707,5.1724,5.1529,5.1529,5.153,0,5.1103,5.1177,5.116,5.1217,5.1239,5.1199,5.1265,5.1282,5.1318,5.1333,5.1302,5.1389,5.1402,5.1487,5.1518,5.1536,5.1551,5.1516,5.1651,5.1664,5.1676,5.1716,5.1733,5.1534,5.1534,5.1533,5.1533,0,5.1253,5.1305,5.1356,5.1391,5.142,5.1482,5.1472,5.1502,5.1485,5.1484,5.1554,5.1567,5.1606,5.1626,5.161,5.1708,5.1689,5.1655,5.1597,5.1699,5.1737,5.1752,5.1541,5.154,5.1538,5.1537,0,0,5.1424,5.1449,5.1467,5.1482,5.1506,5.1544,5.1603,5.1641,5.1666,5.1693,5.1739,5.18,5.1768,5.1788,5.1774,5.1815,5.1912,5.1775,5.1775,5.1797,5.2017,5.204,5.2059,5.1893,5.1896,5.1898,5.2014,0,5.1546,5.1648,5.1633,5.1731,5.1776,5.1737,5.1787,5.1806,5.1807,5.1843,5.1843,5.1885,5.1841,5.1853,5.1892,5.1892,5.1955,5.1884,5.1932,5.1934,5.1925,5.2079,5.2105,5.2214,5.2029,5.2031,5.2033,0,5.1702,5.1734,5.1835,5.185,5.1868,5.1914,5.1946,5.1983,5.2003,5.2,5.2022,5.2,5.2055,5.1998,5.2073,5.2025,5.2044,5.2047,5.2051,5.2052,5.1988,5.2082,5.2248,5.2263,5.2057,5.2055,5.2053,0,5.1812,5.188,5.1949,5.1963,5.1982,5.2015,5.2024,5.2041,5.2064,5.2092,5.2107,5.2141,5.216,5.2186,5.2172,5.2133,5.2249,5.2191,5.2245,5.2245,5.2269,5.2267,5.2438,5.2287,5.2287,5.2286,5.2286,0,5.1948,5.2011,5.1998,5.204,5.2108,5.2091,5.2158,5.2163,5.2177,5.2218,5.2187,5.2226,5.2207,5.2243,5.2233,5.2295,5.2304,5.2301,5.2297,5.2302,5.2302,5.2312,5.2303,5.2291,5.229,5.2289,5.2288,0,5.2082,5.2076,5.2148,5.216,5.2165,5.2214,5.2223,5.2262,5.2259,5.2311,5.2321,5.2317,5.2358,5.2348,5.2393,5.2386,5.2463,5.2451,5.2456,5.2452,5.2505,5.2499,5.2686,5.2708,5.2546,5.2547,5.2549,0,5.2168,5.2215,5.2232,5.2257,5.2269,5.2311,5.2334,5.2318,5.2343,5.2368,5.2403,5.2441,5.2471,5.2538,5.2537,5.2571,5.2558,5.2621,5.2562,5.2565,5.2555,5.2551,5.2554,5.2631,5.2633,5.2635,5.2636,0,5.232,5.2314,5.235,5.2384,5.2412,5.2438,5.2461,5.2483,5.2469,5.2498,5.254,5.2563,5.2608,5.2646,5.2676,5.2684,5.2657,5.2655,5.2668,5.2673,5.2673,5.267,5.2484,5.265,5.2649,5.2648,5.2647,5.2646,5.243,5.2469,5.2486,5.2526,5.2542,5.2563,5.2599,5.26,5.2635,5.2671,5.2659,5.2706,5.2722,5.2761,5.2772,5.2807,5.2783,5.2804,5.2808,5.2813,5.2818,5.267,5.2813,5.2813,5.2812,5.2812,5.2812,0,5.2578,5.2587,5.2624,5.2656,5.2687,5.266,5.2683,5.271,5.2752,5.277,5.2799,5.2846,5.2882,5.2884,5.2917,5.2945,5.2933,5.2954,5.295,5.2952,5.2839,5.2823,5.2963,5.2963,5.2962,5.2962,5.2962,5.2962,5.2658,5.2721,5.2717,5.2787,5.2796,5.2842,5.2857,5.2875,5.2889,5.2943,5.2972,5.2974,5.2985,5.3018,5.3049,5.3049,5.3061,5.3086,5.3081,5.2975,5.296,5.2945,5.293,5.309,5.309,5.3189,5.319,5.3191]}]]